CAPE
0 0 0 0 0 0 0 0 0 0 13 402 986 1308 1480 1170 538 779 651 226 0 0 0 0 0 0 0 0 0 0 0 0 0 0 0 0 0 0 0 0 0 0 0
0 0 0 0 0 0 0 0 0 0 116 557 952 1141 1096 8 0 0 0 0 0 0 0 0 0 0 0 0 0 0 0 0 0 0 0 0 0 0 0 0 0 0 0
0 0 0 0 0 0 0 0 0 10 245 541 892 927 0 0 0 0 0 0 0 0 0 0 0 0 0 0 0 0 0 0 0 0 0 0 0 0 0 0 0 0 0
0 0 0 0 0 0 0 0 0 27 339 699 661 277 0 0 0 0 0 0 0 0 0 0 0 0 0 0 0 0 0 0 0 0 0 0 0 0 0 0 0 0 0
0 0 0 0 0 0 0 0 0 17 376 466 492 21 0 0 0 0 0 0 0 0 0 0 0 0 0 0 0 0 0 0 0 0 0 0 0 0 0 0 0 0 0
0 0 0 0 0 0 0 13 0 47 275 372 0 0 18 0 0 0 0 0 0 0 0 0 0 0 0 0 0 0 0 0 0 0 0 0 0 0 0 0 0 0 0
0 0 0 0 0 0 0 2 0 15 41 0 0 0 5 0 0 0 0 0 0 0 0 0 0 0 0 0 0 0 0 0 0 0 0 0 0 0 0 0 0 0 0
0 0 0 0 0 0 0 0 0 0 0 0 0 31 0 0 0 0 0 0 0 0 0 0 0 0 0 0 0 0 0 0 0 0 0 0 0 0 0 0 0 0 0
0 0 0 0 0 0 0 0 0 0 0 0 0 0 0 0 0 0 0 0 0 0 0 0 0 0 0 0 0 0 0 0 0 0 0 0 0 0 0 0 0 0 0
0 0 0 0 0 0 0 9 0 0 0 0 0 0 0 0 0 0 0 0 0 0 0 0 0 0 0 0 0 0 0 0 0 0 0 0 0 0 0 0 0 0 0
0 0 0 0 0 0 0 12 4 0 0 0 0 0 0 0 0 0 0 0 0 0 0 0 0 0 0 0 0 0 0 0 0 0 0 0 0 0 0 0 0 0 0
15 1 0 0 0 6 5 13 0 0 0 0 0 0 0 0 0 0 0 0 0 0 0 0 0 0 0 0 0 0 0 0 0 0 0 0 0 0 0 0 0 0 0
6 5 9 2 13 13 0 0 0 0 0 0 0 0 0 0 0 0 0 0 0 0 0 0 0 0 0 0 0 0 0 0 0 0 0 0 0 0 0 0 0 0 1
133 8 0 0 1 1 0 0 0 0 0 0 0 0 0 0 0 0 0 0 0 0 0 0 0 0 0 0 0 0 0 0 0 0 0 0 0 0 0 0 0 1 2
85 0 0 0 0 0 0 0 0 0 0 0 0 0 0 0 0 0 0 0 0 0 0 0 0 0 0 0 0 0 0 0 0 0 0 0 0 0 0 2 4 8 11
0 0 0 0 0 0 0 0 0 0 0 0 0 0 0 0 0 0 0 0 0 0 0 0 0 0 0 0 0 0 0 0 0 0 0 0 0 0 0 8 15 16 15
0 0 0 0 0 0 0 0 0 0 0 0 0 0 0 0 0 0 0 0 0 0 0 0 0 0 0 0 0 0 0 0 0 0 0 0 0 0 0 4 14 19 39
0 0 0 0 0 0 0 0 0 0 0 0 0 0 0 0 0 0 0 0 0 0 0 0 0 0 0 0 0 0 0 0 0 0 0 0 0 0 3 8 9 17 25
0 0 0 0 0 0 0 0 0 0 0 0 0 0 0 0 0 0 0 0 0 0 0 0 0 0 0 0 0 0 0 0 0 0 0 0 0 3 16 22 11 19 1
0 0 0 0 0 0 0 0 0 0 0 0 0 0 0 0 0 0 0 0 0 0 0 0 0 0 0 0 0 0 0 0 0 0 0 1 3 15 29 21 7 3 1
0 0 0 0 0 0 0 0 0 0 0 0 0 0 0 0 0 0 0 0 0 0 0 0 0 0 0 0 0 0 0 0 1 0 0 2 12 28 35 29 3 1 8
0 0 0 0 0 0 0 0 0 0 0 0 0 0 0 0 0 0 0 0 0 0 0 0 0 0 0 0 0 0 0 3 4 2 1 4 21 25 15 6 4 12 15
0 0 0 0 0 0 0 0 0 0 0 0 0 0 0 0 0 0 0 0 0 0 0 0 0 0 0 0 0 0 1 4 3 3 11 17 14 7 0 1 5 4 0
0 0 0 0 0 0 0 0 0 0 0 0 0 0 0 0 0 0 0 0 0 0 0 0 0 0 0 0 0 0 1 1 4 9 5 3 1 0 0 0 0 0 0
0 0 0 0 0 0 0 0 0 0 0 0 0 0 0 0 0 0 0 0 0 0 0 0 0 0 0 0 1 4 5 8 13 8 0 0 0 0 0 0 0 0 0
0 0 0 0 0 0 0 0 0 0 0 0 0 0 0 0 0 0 0 0 0 0 0 0 0 0 0 1 4 7 10 12 12 0 0 0 0 0 0 1 1 2 4
CIN
-0 -0 -0 -0 -0 -0 -0 -0 -0 -0 -112 -88 -48 -21 -0 -34 -83 -18 -14 -67 -0 -0 -0 -0 -0 -0 -0 -0 -0 -0 -0 -0 -0 -0 -0 -0 -0 -0 -0 -0 -0 -0 -0
-0 -0 -0 -0 -0 -0 -0 -0 -0 -0 -135 -74 -55 -29 -23 -293 -0 -0 -0 -0 -0 -0 -0 -0 -0 -0 -0 -0 -0 -0 -0 -0 -0 -0 -0 -0 -0 -0 -0 -0 -0 -0 -0
-0 -0 -0 -0 -0 -0 -0 -0 -0 -193 -98 -89 -59 -21 -0 -0 -0 -0 -0 -0 -0 -0 -0 -0 -0 -0 -0 -0 -0 -0 -0 -0 -0 -0 -0 -0 -0 -0 -0 -0 -0 -0 -0
-0 -0 -0 -0 -0 -0 -0 -0 -0 -156 -74 -83 -102 -203 -0 -0 -0 -0 -0 -0 -0 -0 -0 -0 -0 -0 -0 -0 -0 -0 -0 -0 -0 -0 -0 -0 -0 -0 -0 -0 -0 -0 -0
-0 -0 -0 -0 -0 -0 -0 -0 -0 -74 -86 -113 -118 -120 -0 -0 -0 -0 -0 -0 -0 -0 -0 -0 -0 -0 -0 -0 -0 -0 -0 -0 -0 -0 -0 -0 -0 -0 -0 -0 -0 -0 -0
-0 -0 -0 -0 -0 -0 -0 -205 -0 -168 -90 -120 -0 -0 -307 -0 -0 -0 -0 -0 -0 -0 -0 -0 -0 -0 -0 -0 -0 -0 -0 -0 -0 -0 -0 -0 -0 -0 -0 -0 -0 -0 -0
-0 -0 -0 -0 -0 -0 -0 -2 -0 -203 -207 -0 -0 -0 -33 -0 -0 -0 -0 -0 -0 -0 -0 -0 -0 -0 -0 -0 -0 -0 -0 -0 -0 -0 -0 -0 -0 -0 -0 -0 -0 -0 -0
-0 -0 -0 -0 -0 -0 -0 -0 -0 -0 -0 -0 -0 -171 -0 -0 -0 -0 -0 -0 -0 -0 -0 -0 -0 -0 -0 -0 -0 -0 -0 -0 -0 -0 -0 -0 -0 -0 -0 -0 -0 -0 -0
-0 -0 -0 -0 -0 -0 -0 -0 -0 -0 -0 -0 -0 -0 -0 -0 -0 -0 -0 -0 -0 -0 -0 -0 -0 -0 -0 -0 -0 -0 -0 -0 -0 -0 -0 -0 -0 -0 -0 -0 -0 -0 -0
-0 -0 -0 -0 -0 -0 -0 -0 -0 -0 -0 -0 -0 -0 -0 -0 -0 -0 -0 -0 -0 -0 -0 -0 -0 -0 -0 -0 -0 -0 -0 -0 -0 -0 -0 -0 -0 -0 -0 -0 -0 -0 -0
-0 -0 -0 -0 -0 -0 -0 -0 -0 -0 -0 -0 -0 -0 -0 -0 -0 -0 -0 -0 -0 -0 -0 -0 -0 -0 -0 -0 -0 -0 -0 -0 -0 -0 -0 -0 -0 -0 -0 -0 -0 -0 -0
-26 -46 -0 -0 -0 -0 -3 -0 -0 -0 -0 -0 -0 -0 -0 -0 -0 -0 -0 -0 -0 -0 -0 -0 -0 -0 -0 -0 -0 -0 -0 -0 -0 -0 -0 -0 -0 -0 -0 -0 -0 -0 -0
-16 -89 -92 -50 -8 -15 -1 -0 -0 -0 -0 -0 -0 -0 -0 -0 -0 -0 -0 -0 -0 -0 -0 -0 -0 -0 -0 -0 -0 -0 -0 -0 -0 -0 -0 -0 -0 -0 -0 -0 -0 -0 -0
-5 -107 -0 -0 -7 -2 -0 -0 -0 -0 -0 -0 -0 -0 -0 -0 -0 -0 -0 -0 -0 -0 -0 -0 -0 -0 -0 -0 -0 -0 -0 -0 -0 -0 -0 -0 -0 -0 -0 -0 -0 -0 -0
-19 -0 -0 -0 -0 -0 -0 -0 -0 -0 -0 -0 -0 -0 -0 -0 -0 -0 -0 -0 -0 -0 -0 -0 -0 -0 -0 -0 -0 -0 -0 -0 -0 -0 -0 -0 -0 -0 -0 -0 -0 -0 -0
-0 -0 -0 -0 -0 -0 -0 -0 -0 -0 -0 -0 -0 -0 -0 -0 -0 -0 -0 -0 -0 -0 -0 -0 -0 -0 -0 -0 -0 -0 -0 -0 -0 -0 -0 -0 -0 -0 -0 -0 -0 -1 -1
-0 -0 -0 -0 -0 -0 -0 -0 -0 -0 -0 -0 -0 -0 -0 -0 -0 -0 -0 -0 -0 -0 -0 -0 -0 -0 -0 -0 -0 -0 -0 -0 -0 -0 -0 -0 -0 -0 -0 -0 -0 -1 -0
-0 -0 -0 -0 -0 -0 -0 -0 -0 -0 -0 -0 -0 -0 -0 -0 -0 -0 -0 -0 -0 -0 -0 -0 -0 -0 -0 -0 -0 -0 -0 -0 -0 -0 -0 -0 -0 -0 -1 -1 -3 -2 -1
-0 -0 -0 -0 -0 -0 -0 -0 -0 -0 -0 -0 -0 -0 -0 -0 -0 -0 -0 -0 -0 -0 -0 -0 -0 -0 -0 -0 -0 -0 -0 -0 -0 -0 -0 -0 -1 -0 -0 -1 -3 -0 -0
-0 -0 -0 -0 -0 -0 -0 -0 -0 -0 -0 -0 -0 -0 -0 -0 -0 -0 -0 -0 -0 -0 -0 -0 -0 -0 -0 -0 -0 -0 -0 -0 -0 -0 -0 -0 -0 -0 -0 -0 -0 -0 -0
-0 -0 -0 -0 -0 -0 -0 -0 -0 -0 -0 -0 -0 -0 -0 -0 -0 -0 -0 -0 -0 -0 -0 -0 -0 -0 -0 -0 -0 -0 -0 -0 -0 -0 -0 -0 -0 -0 -0 -0 -2 -1 -1
-0 -0 -0 -0 -0 -0 -0 -0 -0 -0 -0 -0 -0 -0 -0 -0 -0 -0 -0 -0 -0 -0 -0 -0 -0 -0 -0 -0 -0 -0 -0 -0 -0 -0 -0 -1 -0 -0 -0 -0 -0 -0 -0
-0 -0 -0 -0 -0 -0 -0 -0 -0 -0 -0 -0 -0 -0 -0 -0 -0 -0 -0 -0 -0 -0 -0 -0 -0 -0 -0 -0 -0 -0 -0 -0 -0 -0 -0 -0 -0 -0 -0 -0 -0 -0 -0
-0 -0 -0 -0 -0 -0 -0 -0 -0 -0 -0 -0 -0 -0 -0 -0 -0 -0 -0 -0 -0 -0 -0 -0 -0 -0 -0 -0 -0 -0 -0 -0 -0 -0 -1 -0 -0 -0 -0 -0 -0 -0 -0
-0 -0 -0 -0 -0 -0 -0 -0 -0 -0 -0 -0 -0 -0 -0 -0 -0 -0 -0 -0 -0 -0 -0 -0 -0 -0 -0 -0 -0 -0 -0 -0 -0 -1 -0 -0 -0 -0 -0 -0 -0 -0 -0
-0 -0 -0 -0 -0 -0 -0 -0 -0 -0 -0 -0 -0 -0 -0 -0 -0 -0 -0 -0 -0 -0 -0 -0 -0 -0 -0 -0 -0 -0 -0 -0 -0 -0 -0 -0 -0 -0 -0 -0 -0 -0 -0
Wind_Speed
19 19 18 18 20 20 19 18 15 14 11 10 10 10 9 4 5 2 9 12 10 11 9 7 7 6 4 4 5 3 3 4 5 3 3 3 3 3 3 4 3 2 3
23 23 22 21 20 20 18 17 17 15 13 10 9 9 8 7 6 2 8 9 10 8 7 7 7 7 5 6 5 3 2 3 5 3 3 2 3 2 3 3 3 4 3
23 23 23 21 18 19 19 17 17 15 14 13 9 8 12 8 5 5 6 7 10 9 5 4 6 7 5 5 5 5 4 3 3 5 3 2 2 4 2 3 3 3 2
19 19 21 20 19 19 16 16 16 16 14 15 14 16 10 10 6 7 6 8 10 9 8 9 8 7 5 6 5 4 4 2 3 2 3 2 3 3 5 0 3 3 5
14 14 16 17 18 16 16 14 15 15 16 17 14 13 12 10 10 9 12 9 8 8 9 7 8 6 5 6 6 5 5 4 2 2 2 2 3 5 4 6 4 7 6
10 10 12 13 13 14 12 14 15 15 16 16 17 17 16 17 13 12 9 8 7 7 8 7 8 7 7 7 5 5 4 4 2 1 1 2 3 4 4 6 8 10 8
10 13 14 13 13 13 15 12 16 16 17 18 17 17 16 18 17 15 11 12 8 7 8 8 8 7 7 7 6 5 4 3 2 2 2 3 4 4 5 6 8 9 8
12 10 15 14 14 13 15 15 17 16 18 17 17 14 17 11 11 13 11 10 8 8 11 9 9 9 8 7 6 4 2 2 2 2 3 4 5 4 5 5 7 10 8
9 13 16 16 13 13 16 16 17 16 16 16 14 16 15 14 13 15 12 10 10 8 8 10 9 8 7 6 5 3 2 1 1 3 4 4 4 4 5 5 6 8 11
9 12 14 13 12 13 14 16 18 17 16 16 15 14 15 14 14 14 13 13 12 10 10 10 9 8 6 5 3 2 2 2 2 3 5 6 5 6 5 6 6 7 9
10 11 12 11 8 11 14 16 16 17 16 15 15 16 15 15 15 14 13 12 12 10 11 10 9 7 6 4 2 1 1 3 5 5 6 7 7 6 6 6 7 7 8
7 9 11 5 5 10 12 15 16 15 15 15 16 16 16 16 16 14 13 12 11 11 10 9 8 6 5 3 1 1 2 4 6 6 7 8 7 8 8 7 9 8 10
6 6 6 4 7 7 11 14 15 15 16 16 17 17 16 16 15 15 12 11 11 11 9 8 7 6 4 2 1 3 5 6 7 7 8 8 9 9 8 8 9 9 9
5 5 5 6 8 9 12 15 14 16 16 17 17 17 16 16 14 13 13 12 11 10 9 7 6 4 3 1 2 4 6 7 7 7 7 9 9 10 10 10 11 10 11
4 3 5 8 9 11 14 14 14 16 16 17 16 16 15 15 14 13 12 11 10 9 8 7 5 3 2 2 5 6 7 8 9 8 9 8 9 14 14 9 10 12 10
3 6 7 12 14 12 12 13 15 14 15 17 16 15 15 14 13 13 12 11 10 8 7 5 4 2 1 4 5 7 8 9 9 8 9 9 13 12 16 19 20 18 13
10 10 11 13 12 12 12 14 15 16 16 17 15 15 14 14 12 12 11 10 9 7 6 4 2 1 1 2 6 8 8 9 9 9 9 9 9 13 10 15 21 19 25
12 12 12 12 13 13 13 14 15 16 16 16 15 13 13 13 12 11 10 9 7 6 4 3 1 2 1 1 6 10 9 8 9 9 10 10 11 10 14 12 12 12 14
12 11 13 14 15 13 15 14 16 15 15 14 13 12 12 13 12 11 9 7 6 4 3 1 1 3 4 3 7 10 9 8 9 9 9 11 11 16 19 14 13 15 13
13 14 14 15 14 12 11 14 14 14 15 13 13 13 12 12 11 9 7 5 5 3 1 1 3 2 5 4 7 10 8 9 8 9 11 16 15 19 22 15 13 15 14
15 15 14 14 14 15 15 15 15 14 14 13 12 12 10 10 9 8 6 5 4 1 1 2 4 4 3 6 7 11 9 7 8 8 8 8 20 22 25 24 13 14 16
14 14 14 14 14 14 13 15 15 13 12 12 12 11 9 7 7 7 5 4 1 1 3 3 4 4 4 6 8 10 12 14 9 10 8 10 22 25 24 19 20 21 20
11 10 12 13 11 11 11 15 12 11 12 12 11 9 9 7 5 5 4 2 1 2 3 3 4 5 4 5 10 11 15 16 12 9 15 25 24 22 15 18 20 17 7
13 13 14 14 14 11 11 14 12 11 12 11 10 8 7 7 5 3 2 1 2 3 3 4 5 5 6 6 5 7 8 14 11 14 12 16 19 16 14 12 10 7 7
11 11 12 12 13 12 12 10 11 10 11 10 8 7 5 5 4 2 3 3 3 3 4 5 6 6 6 7 13 13 10 9 12 17 9 9 7 8 7 7 8 8 8
11 13 13 13 13 12 12 10 9 9 9 8 5 4 4 3 2 1 1 5 2 2 5 7 6 7 12 14 17 18 20 20 22 9 8 7 7 8 8 9 9 9 12
Wind_Direction
246 238 237 239 239 233 228 225 226 201 200 196 193 198 182 141 82 138 156 169 155 153 152 138 140 128 136 115 114 106 64 47 354 301 346 196 188 213 213 221 277 194 259
241 240 236 229 233 229 226 225 219 205 197 192 196 192 133 78 79 104 139 145 149 141 128 131 134 122 131 113 102 87 113 78 24 360 273 323 176 189 225 235 316 277 324
250 244 239 234 223 229 223 215 220 202 191 192 181 158 101 109 117 128 114 130 140 143 136 119 119 124 120 108 95 83 42 80 89 36 349 315 323 1 227 216 276 286 318
247 251 252 242 232 223 222 218 209 201 189 184 177 162 159 153 149 145 131 131 142 139 140 135 123 124 120 114 110 83 77 32 61 157 57 12 347 317 307 92 246 331 302
245 250 245 243 253 241 216 210 207 199 183 185 168 162 170 155 140 135 139 129 116 124 126 112 113 124 114 112 113 105 76 75 47 22 350 338 277 260 263 293 307 315 311
247 250 253 260 242 243 238 194 199 193 181 169 173 179 172 145 145 142 139 134 130 133 141 130 120 124 119 119 110 102 86 70 60 353 354 320 304 311 298 301 305 303 294
280 265 257 244 235 227 232 195 198 191 175 178 180 186 154 156 154 146 144 142 137 133 132 131 138 125 118 119 113 98 114 91 15 326 327 305 276 289 290 290 291 294 299
275 304 286 236 236 217 219 191 200 186 175 177 175 164 148 153 150 147 146 134 137 139 135 128 135 127 127 124 123 123 121 110 216 286 304 294 287 290 290 289 299 297 286
287 311 312 266 224 214 217 191 194 180 173 169 155 146 151 148 143 139 135 128 116 128 129 132 135 128 128 125 134 109 153 221 274 293 273 272 282 283 284 288 287 292 297
290 308 323 276 224 215 196 193 191 170 163 156 147 137 142 141 132 130 123 124 126 136 137 136 135 133 131 127 130 145 135 298 295 276 287 290 294 297 294 287 284 280 285
289 310 318 292 210 215 178 185 173 157 151 146 133 134 137 136 125 120 121 121 132 133 140 137 137 137 132 129 145 110 303 276 283 282 284 293 293 286 289 291 289 285 285
291 308 307 291 215 191 151 168 155 143 140 130 130 133 136 131 120 122 119 131 131 133 133 134 130 124 120 118 95 308 281 284 288 292 293 292 294 297 293 289 290 290 291
295 305 287 151 192 141 142 149 143 137 128 130 132 134 129 123 117 120 125 129 129 125 127 124 125 123 113 104 350 316 300 289 289 292 291 297 297 295 296 296 295 292 291
312 305 209 146 167 142 132 140 135 136 130 130 133 127 121 120 121 123 127 124 127 125 122 117 113 107 107 49 324 303 291 290 293 291 287 290 290 292 302 308 302 301 303
316 235 160 160 139 130 125 128 134 131 128 129 124 117 117 115 120 120 120 121 119 116 114 117 113 109 63 29 342 315 309 302 299 297 294 291 299 298 288 291 291 298 299
216 178 156 133 130 127 128 137 134 127 126 118 113 112 115 118 118 121 119 116 116 117 119 113 105 91 341 56 317 311 309 304 301 301 303 304 302 298 304 296 298 294 298
161 165 153 137 136 129 138 141 128 119 112 110 112 116 120 118 119 117 116 118 117 121 117 113 98 3 324 52 320 313 303 303 295 298 300 302 304 310 299 302 301 311 301
145 143 143 130 124 125 127 126 119 112 113 110 113 117 120 116 117 115 114 116 122 120 119 107 75 289 290 116 314 318 298 298 298 300 297 298 297 299 302 302 303 298 289
122 129 121 115 112 114 126 121 107 102 105 108 115 119 121 119 118 116 117 120 121 120 105 83 293 297 310 108 324 323 313 307 301 298 302 305 302 304 308 307 307 299 300
111 111 108 102 106 111 114 104 102 108 119 125 117 122 116 114 114 117 118 104 95 97 84 287 290 308 290 321 337 326 312 310 312 316 308 307 308 312 315 310 308 306 309
111 115 115 117 130 144 137 126 121 115 116 116 109 105 102 108 113 113 108 111 105 166 272 280 297 297 306 311 312 319 319 314 315 303 306 312 315 314 310 316 311 303 305
120 118 115 121 126 124 118 112 109 109 104 102 101 99 102 110 111 110 114 107 81 285 308 332 325 327 324 323 316 316 309 302 305 306 309 306 303 314 316 317 307 309 311
81 75 100 99 90 90 106 106 106 109 104 98 99 106 106 102 111 119 119 130 4 340 338 337 318 321 334 321 321 318 316 317 313 309 307 313 315 315 312 308 310 314 303
129 135 130 115 105 98 99 106 110 109 107 110 112 111 111 115 108 86 60 23 355 344 329 329 330 328 322 323 340 324 319 317 318 314 304 314 308 311 313 317 313 311 308
124 124 113 106 104 103 101 104 111 116 110 110 110 107 116 107 108 73 16 357 64 17 339 335 328 320 321 325 322 319 315 306 312 321 317 304 314 317 315 315 313 313 310
112 104 107 108 105 106 107 111 113 111 113 111 113 110 113 106 61 18 134 169 181 301 303 306 310 316 310 321 322 317 312 321 321 318 305 316 316 314 317 315 312 307 306